Location: Austin
(30.3000°N, 97.7500°W)
Time: 11:55:36
(UTC-05:00)

Cosmos 1954 Rocket - Pass Details

Date: 26 May 2023
Orbit: 750 x 781 km, 74.0° (Epoch: 30 May)

Event Time Altitude Azimuth Distance (km) Brightness Sun altitude
Exits shadow 22:01:58 14° 185° (S) 2,010 5.8 -18.5°
Maximum altitude 22:06:24 70° 104° (ESE) 822 3.9 -19.3°
Drops below altitude 10° 22:11:41 10° 21° (NNE) 2,332 6.7 -20.1°
Sets 22:14:05 0° 19° (NNE) 3,265 7.6 -20.5°
